Regional Weather Roundup
Issued by NWS Upton, NY

Current Version | Previous Version | Graphics & Text | Print | Product List | Glossary On
Versions: 1 2 3 4 5 6 7 8 9 10 11 12 13 14 15 16 17 18 19 20 21 22 23 24 25 26 27 28 29 30 31 32 33 34 35 36 37 38 39 40 41 42 43 44 45 46 47 48
000
ASUS41 KOKX 030614
RWROKX

Regional Weather Roundup
National Weather Service New York NY
200 AM EDT SUN JUL 03 2022

Note: "FAIR" indicates few or no clouds below 12,000 feet with no
significant weather and/or obstructions to visibility.

NYZ071-072-176-178-NJZ106-104-030700-
New York City Metro Area

CITY           SKY/WX    TMP DP  RH WIND       PRES   REMARKS
Central Park   PTCLDY    80  65  59 CALM      29.97S
World Trd Ctr  NOT AVBL
Bronx Lehman C   N/A     77  68  73 NE2         N/A
LaGuardia Arpt MOCLDY    77  66  68 E3        29.93S
Queens College   N/A     77  68  73 NE5         N/A
Kennedy Intl   MOCLDY    79  67  66 W10       29.94S
Breezy Point   NOT AVBL
Brooklyn Coll    N/A     79  66  65 W8          N/A
Staten Island    N/A     77  66  69 W3          N/A
Newark/Liberty MOCLDY    82  67  60 W9        29.93S
Teterboro      MOCLDY    78  67  68 N5        29.93S
$$

NYZ177-179-078>081-030700-
Long Island New York

CITY           SKY/WX    TMP DP  RH WIND       PRES   REMARKS
Jones Beach      N/A     72 N/A N/A W5          N/A
Wantagh          N/A     73  72  94 SW3         N/A
Hempstead      NOT AVBL
Matinecock Pt  NOT AVBL
Farmingdale    CLOUDY    76  70  82 CALM      29.94S
MacArthur/ISP  MOCLDY    73  72  96 CALM      29.93F
Stony Brook      N/A     72  68  88 CALM        N/A
Shirley        MOCLDY    73  69  87 CALM      29.93F
Mt Sinai Harb    N/A     72 N/A N/A MISG        N/A
Westhampton    PTCLDY    70  69  97 CALM      29.95S
East Hampton   MOCLDY   N/A N/A N/A CALM      29.94R
Southold         N/A     72  70  94 SW1         N/A
Montauk          N/A     70  69  97 CALM      29.95S
$$

NYZ052-065-067-030700-
Hudson Valley

CITY           SKY/WX    TMP DP  RH WIND       PRES   REMARKS
White Plains   CLOUDY    73  70  90 CALM      29.95S
Larchmont Harb   N/A     75 N/A N/A NW3         N/A
Croton On Huds   N/A     73 N/A N/A NE2         N/A
Somers           N/A     68  68 100 NE1         N/A
Brewster         N/A     68  68 100 CALM        N/A
Newburgh       PTCLDY    70  68  94 CALM      29.96S
Montgomery     FOG       69  69 100 CALM      29.96S VSB 1/4
Otisville        N/A     68  64  88 CALM        N/A
Warwick          N/A     68  68 100 SW1         N/A
Suffern          N/A     72  66  83 CALM        N/A
Poughkeepsie   MOCLDY    70  69  97 CALM      29.95R FOG
Albany         MOCLDY    61  53  75 CALM      29.96R
$$

NJZ001-105-106-008-010-013-015-019>022-104-030700-
New Jersey

CITY           SKY/WX    TMP DP  RH WIND       PRES   REMARKS
Newark/Liberty MOCLDY    82  67  60 W9        29.93S
Teterboro      MOCLDY    78  67  68 N5        29.93S
Caldwell       MOCLDY    76  67  73 CALM      29.96R
Somerville     PTCLDY    72  68  87 CALM      29.94S
Linden         FAIR      78  65  64 W3        29.94S
Perth Amboy      N/A     77 N/A N/A W7          N/A
Sussex         PTCLDY    71  69  93 CALM      29.98S
Andover          N/A     73  68  84 CALM      29.98R
Trenton        CLOUDY    75  68  78 W5        29.94F
Millville      CLOUDY    71  69  93 W5        29.95F
Atlantic City  MOCLDY    74  72  93 SW5       29.94F
Wrightstown    NOT AVBL
Toms River     NOT AVBL
Belmar         CLOUDY    74  74 100 W5        29.96F
$$

PAZ047>061-062-071-030700-
Eastern Pennsylvania

CITY           SKY/WX    TMP DP  RH WIND       PRES   REMARKS
Philadelphia   MOCLDY    75  71  87 SW6       29.96R
Allentown      MOCLDY    73  67  81 W5        29.96S
Scranton       MOCLDY    69  66  90 E3        30.01R
$$

CTZ002-004>006-009-010-012-RIZ004-006-007-MAZ004-011-015-030700-
Southern New England

 In CT

CITY           SKY/WX    TMP DP  RH WIND       PRES   REMARKS
Bradley Intl   CLOUDY    72  58  61 NW6       29.94S
Hartford       MOCLDY    75  65  70 N5        29.94R
Danbury        MOCLDY    72  69  90 CALM      29.97S
Wtrbury/Oxford PTCLDY    69  67  93 N3        29.98R
Norwalk Harbor   N/A     72 N/A N/A MISG        N/A
Bridgeport     PTCLDY    73  69  87 CALM      29.94R
Meriden        PTCLDY    71  68  90 CALM      29.94S
New Haven      PTCLDY    72  70  93 CALM      29.94R
Chester        FAIR      70  70 100 CALM      29.95S
Groton         PTCLDY    70  67  90 SW5       29.93R
Willimantic    CLEAR     69  68  96 CALM      29.94F

 In RI

CITY           SKY/WX    TMP DP  RH WIND       PRES   REMARKS
Providence     PTCLDY    72  70  93 CALM      29.94R
Block Island   PTCLDY    67  66  97 W10       29.95F
Westerly       CLEAR     69  67  93 S5        29.94R

In MA

CITY           SKY/WX    TMP DP  RH WIND       PRES   REMARKS
Boston         CLOUDY    72  63  73 W8        29.92R
Worcester      CLEAR     67  62  84 NW13      29.96S
Westfield      PTCLDY    65  63  93 N3        29.95S
Provincetown   FOG       67  67 100 SW7       29.93R VSB 3/4
Nantucket      FOG       69  68  96 SW8       29.94F VSB 1
$$

ANZ330-335-338-340-345-350-353-355-030700-
Coastal Marine Observations


STATION/POSITION TIME  SKY/WX   TEMP    WIND        PRES    VSBY  WAVE
                                AIR SEA DIR/SP/G                  HT/PER
                 (UTC)          (F)     (DEG/KT/KT) (MB)    (MI)  (FT/S)
NY Harb Entrance 0550               69  230/  4/  6 1013.2          4/ 6
20 S Fire Island 0550                               1013.4          5/ 6
Great South Bay  0515            75     250/ 10/ 14   N/A
23 SSW Montauk P 0550            70     260/ 12/ 16 1013.8          5/ 6
15 E Barnegat Li 0556               70                N/A           4/ 6
Hudson Canyon    0550            73 71  230/ 16/ 19 1014.0          5/ 6
Kings Point      0530            71 66   80/  1/  2 1014.6
Execution Rocks  0545            72     360/  2/ 19   N/A
Western LI Sound 0545            73      10/  4/  4   N/A
Central LI Sound NOT AVBL
Robbins Reef     0530            80     260/ 13/ 15 1013.8
$$


>>>>>>>>>>>>>>>>>>>>>>>>>>>> KEY <<<<<<<<<<<<<<<<<<<<<<<<<<<
>                                                          <
>     SKY/WX - Sky Condition/Present Weather               <
>     TMP    - Temperature in Fahrenheit                   <
>     DP     - Dew Point in Fahrenheit                     <
>     RH     - Relative Humidity in Percent                <
>     WIND   - Direction (from) and Speed in MPH           <
>     PRES   - Mean Sea Level Pressure (inches of Hg)      <
>     WCI    - Wind Chill Index                            <
>     VSB    - Visibility in Miles                         <
>     HX     - Heat Index                                  <
>     TC     - Temperature in Celsius                      <
>     VRB    - Variable Wind Direction                     <
>                                                          <
>>>>>>>>>>>>>>>>>>>>>>>>>>>> KEY <<<<<<<<<<<<<<<<<<<<<<<<<<<



USA.gov is the U.S. government's official web portal to all federal, state and local government web resources and services.